Theta_e
291 292 292 292 293 294 296 297 296 295 297 300 310 317 321 322 322 320 322 321 322 325 328 327 326 325 325 323 323 323 323 324 322 321 320 320 321 321 320 319 319 320 318
290 292 292 292 292 293 294 296 296 296 295 297 302 310 317 322 322 321 320 318 321 320 326 329 328 327 326 326 324 324 324 324 324 323 321 321 320 320 319 320 319 319 319
288 291 292 291 290 292 292 293 295 295 295 296 296 300 304 313 323 321 322 321 321 321 323 329 329 329 328 327 326 324 325 323 325 324 323 322 322 321 320 319 320 321 322
289 291 291 290 290 290 291 291 293 294 295 295 295 295 296 302 314 322 323 322 321 322 323 326 330 330 329 328 327 326 325 325 324 326 325 324 323 323 323 321 320 321 323
289 289 291 289 289 289 290 290 291 292 293 294 294 294 291 297 304 311 317 322 322 321 322 322 323 326 329 329 329 328 327 326 325 325 326 326 326 325 325 323 322 321 323
288 288 289 288 289 288 289 289 290 291 292 293 294 293 290 292 299 304 310 317 320 321 322 322 319 319 322 328 328 328 330 328 326 326 326 326 326 326 325 325 324 323 324
288 287 288 288 288 288 288 288 289 289 290 290 291 292 290 290 295 299 303 308 310 317 318 319 320 321 321 321 325 327 328 330 330 329 328 328 328 327 325 325 325 325 324
287 287 287 286 286 286 287 288 288 289 288 289 289 289 289 289 291 294 300 301 302 308 311 308 312 318 319 320 320 322 326 328 329 330 330 330 330 330 328 327 326 325 325
287 287 286 286 286 286 287 287 287 288 288 288 288 289 289 289 289 290 294 297 300 302 303 304 303 308 312 318 319 321 322 325 326 329 329 328 328 328 329 329 327 327 326
287 286 285 285 285 286 287 287 287 287 288 288 288 288 288 288 289 289 293 293 295 295 296 300 302 302 305 307 313 316 319 321 323 326 327 328 327 328 328 328 329 329 329
286 286 285 285 285 286 286 287 287 287 287 287 288 288 288 288 288 288 290 291 292 292 293 294 296 301 303 304 306 309 312 316 320 321 323 325 325 327 328 328 327 327 328
285 285 285 285 285 286 286 287 287 287 287 287 287 288 288 288 288 289 289 289 290 290 292 293 293 294 301 302 303 304 304 306 313 317 319 322 324 327 327 327 326 327 327
284 284 284 285 285 285 286 286 286 286 287 287 287 287 287 288 288 288 289 289 289 289 290 291 292 293 294 296 300 302 303 303 305 307 312 316 319 323 323 325 325 327 326
285 285 285 285 285 286 286 285 286 286 286 286 285 286 286 287 287 287 288 288 288 289 290 290 291 292 293 294 295 296 299 301 302 304 306 307 308 312 318 320 323 323 324
285 285 285 285 285 285 286 285 285 285 285 285 285 285 285 286 286 286 287 288 288 288 289 289 290 291 292 293 293 293 294 297 300 301 301 303 305 307 308 311 313 317 319
285 285 285 285 285 285 285 284 284 284 284 284 285 284 284 285 287 287 287 287 288 288 288 289 289 289 290 290 291 292 292 293 294 297 299 300 301 302 305 306 306 307 310
286 286 285 285 285 284 284 284 284 285 285 284 284 284 284 285 285 286 287 287 287 288 288 288 288 289 289 289 290 290 291 291 291 292 293 296 298 299 301 302 303 304 305
286 286 285 285 284 283 283 283 283 283 284 285 285 284 284 284 284 286 287 287 287 287 287 287 288 288 288 289 289 289 289 290 290 291 291 292 293 294 296 299 300 301 302
286 285 285 285 284 284 283 282 282 282 283 282 284 285 285 285 285 286 286 286 286 286 287 287 287 288 288 288 289 289 289 290 290 290 290 290 291 291 293 294 295 298 299
285 285 285 285 285 285 283 283 282 282 283 284 284 282 284 285 285 285 285 285 285 286 286 286 287 287 288 288 288 289 289 289 289 290 290 290 290 290 291 291 292 293 294
285 285 285 285 285 285 284 283 283 283 283 283 283 283 284 284 284 284 285 285 285 285 286 286 286 287 287 288 288 289 289 289 289 289 290 290 290 291 290 291 291 291 292
284 284 283 284 284 284 284 284 283 283 283 283 283 284 283 284 284 284 284 284 285 285 285 286 286 287 287 287 288 288 289 289 289 289 290 290 291 291 291 291 291 291 291
282 282 282 282 283 283 283 283 284 283 283 283 283 283 283 283 283 283 284 284 285 285 285 285 285 286 287 287 288 287 287 288 289 289 290 290 290 291 291 291 292 291 291
282 281 280 281 281 282 283 283 283 283 283 283 283 283 283 283 283 283 284 284 284 284 284 285 285 285 286 287 287 287 287 287 288 290 290 290 291 291 291 291 292 291 291
282 281 280 280 279 280 282 282 282 282 282 282 283 283 283 283 283 284 284 283 284 284 284 284 284 284 285 286 287 287 288 287 289 290 290 290 290 291 291 291 292 292 291
280 280 280 280 280 280 280 281 281 282 282 282 282 282 282 282 282 283 283 283 284 284 284 284 284 284 284 285 285 286 287 288 288 289 289 289 290 290 290 291 291 291 291
Wind_Speed
39 38 39 40 35 33 39 41 38 31 23 16 7 16 25 32 37 36 43 50 37 29 63 64 65 63 60 65 65 63 59 54 49 39 34 40 44 37 42 42 40 37 35
36 35 36 39 36 34 33 38 38 34 28 25 16 1 16 30 34 41 49 43 46 30 33 66 67 65 60 62 67 66 66 63 55 50 44 34 32 33 33 32 39 39 36
33 31 34 38 38 35 32 31 32 34 32 29 28 21 10 10 35 39 38 49 57 36 22 59 64 65 63 61 66 67 65 65 60 50 46 42 38 34 31 30 32 32 35
31 28 31 37 36 32 31 29 30 30 34 31 28 28 26 10 12 28 32 36 34 25 36 25 58 61 63 63 67 68 65 64 63 59 49 48 46 43 39 36 35 36 38
31 31 28 35 31 31 32 31 29 29 29 30 29 28 32 27 14 13 20 31 24 28 32 27 16 26 54 62 70 69 62 62 59 61 53 50 50 48 45 43 41 39 39
33 35 29 31 29 30 32 33 31 31 32 30 30 30 35 30 25 12 14 20 21 30 26 25 20 18 15 45 58 60 69 69 60 59 56 57 54 51 49 49 46 45 45
33 35 29 30 29 30 30 33 31 32 30 30 28 29 32 33 24 20 19 20 15 18 13 15 18 19 23 27 25 53 56 59 57 57 55 54 54 53 52 50 47 47 47
33 34 29 29 29 30 28 30 31 28 28 29 29 29 30 30 28 22 17 20 16 14 9 6 9 23 27 27 27 22 47 55 50 46 46 46 49 49 51 51 50 49 49
34 32 30 31 31 28 30 29 29 29 29 28 29 29 31 32 31 26 22 19 19 16 9 6 7 4 11 21 23 25 28 45 49 50 46 38 41 42 42 42 46 44 46
31 29 29 32 31 32 31 29 29 30 29 29 28 28 29 29 30 32 26 23 21 15 10 6 5 5 3 6 10 17 19 28 41 47 48 47 44 42 40 41 41 43 42
27 24 27 30 30 30 29 27 27 29 30 30 29 28 27 28 29 28 29 25 21 16 13 8 6 4 4 2 2 4 12 21 29 29 39 47 49 47 45 46 46 46 46
24 24 25 26 26 27 27 26 29 30 31 32 32 31 31 31 30 29 27 22 21 18 14 11 9 5 4 4 2 3 5 7 16 26 34 35 42 48 50 51 51 53 51
26 26 26 27 27 26 24 24 26 28 30 30 28 27 30 32 30 30 29 26 21 18 15 14 13 10 7 5 6 5 6 6 6 7 14 26 34 42 44 45 49 51 52
24 25 27 29 29 28 25 24 23 24 25 26 27 29 30 30 29 31 29 26 22 20 22 18 13 12 10 8 7 6 7 7 7 6 7 9 12 20 36 41 42 48 48
23 24 25 27 27 28 24 23 22 21 22 23 27 27 29 29 26 23 24 24 24 22 19 18 20 18 13 10 9 8 6 6 6 6 7 9 10 10 11 17 27 36 41
23 23 23 23 25 26 25 25 22 23 21 21 21 25 25 23 24 23 23 21 20 21 19 22 21 18 18 17 15 11 9 8 6 7 9 9 9 11 11 11 12 9 15
24 23 24 24 23 24 25 25 28 25 23 25 25 28 27 26 27 24 23 20 21 21 22 20 18 17 16 15 14 14 14 13 10 10 9 9 9 9 11 12 12 13 14
23 25 26 23 23 22 22 22 23 25 28 30 28 27 29 25 25 23 23 23 26 25 23 21 19 17 17 16 15 15 14 13 12 11 11 11 9 10 10 10 12 13 12
23 25 25 24 24 22 23 24 25 24 25 25 28 28 29 27 26 26 25 26 26 26 24 22 20 19 17 17 16 15 15 14 14 13 10 11 12 13 11 12 13 13 15
22 22 22 23 24 25 25 26 26 25 25 27 27 27 28 28 30 29 27 25 25 23 24 23 21 21 20 18 18 17 16 15 14 14 13 12 12 13 14 13 12 14 15
21 20 20 21 22 23 25 25 26 25 24 25 26 24 23 24 25 27 27 25 22 21 21 23 24 23 22 20 19 18 18 17 16 15 14 14 12 13 13 14 13 13 12
19 20 19 18 19 20 21 23 23 24 24 24 25 25 24 23 23 24 24 24 23 20 21 21 21 22 24 24 23 22 21 20 18 17 16 16 15 14 13 13 14 15 15
16 18 19 19 17 18 18 20 21 22 22 23 24 25 26 25 23 23 23 24 23 23 22 21 21 21 21 22 22 23 24 23 20 19 18 17 18 18 16 14 14 15 17
15 16 15 17 18 17 16 18 18 19 21 21 22 23 24 25 26 25 24 24 24 23 22 21 21 21 21 21 21 22 23 24 23 20 18 18 18 17 18 18 17 15 15
15 15 15 14 16 19 16 15 17 18 19 19 21 21 22 23 24 24 25 24 23 23 23 21 21 22 22 22 21 21 23 24 24 23 19 18 17 17 17 18 19 18 16
14 15 16 15 15 18 18 17 16 17 18 19 19 20 21 22 23 23 24 24 24 24 23 24 24 24 24 24 23 22 20 22 23 23 22 19 17 16 16 16 17 18 19
Wind_Direction
355 358 1 5 10 12 15 7 1 7 17 359 294 246 230 225 233 228 223 217 256 243 220 216 220 217 218 222 224 226 227 227 230 234 240 237 234 233 234 232 233 231 232
354 354 358 0 5 12 13 15 4 1 22 26 27 316 228 224 220 225 224 222 221 270 259 220 219 218 217 222 226 228 229 231 230 232 235 236 236 236 239 237 234 234 233
352 354 357 360 3 7 10 13 11 4 7 31 34 31 44 208 211 215 211 215 210 242 286 222 217 217 215 216 226 229 230 233 232 230 231 235 240 241 242 240 234 234 232
358 358 359 360 0 5 6 13 15 15 5 15 25 34 27 45 177 203 207 206 194 210 245 241 214 219 216 217 224 229 229 229 231 232 230 233 237 240 242 243 241 236 230
4 1 359 354 1 4 7 8 15 21 24 15 21 27 14 37 70 135 174 199 192 211 228 247 208 190 212 217 227 228 224 225 228 231 226 229 233 237 237 242 243 239 234
2 1 357 356 4 6 10 8 13 17 21 24 17 12 14 25 49 74 125 126 165 199 219 243 253 245 245 220 214 224 234 232 226 231 230 233 234 238 243 244 242 237 235
359 360 359 0 4 11 10 11 15 18 21 21 23 20 13 20 40 52 73 103 129 155 181 211 228 245 251 245 227 214 224 235 237 236 235 237 238 237 241 240 239 239 241
358 357 2 5 9 8 15 13 15 22 23 22 26 24 20 20 34 46 59 78 81 99 132 134 202 231 248 255 255 245 220 223 229 232 238 242 246 246 244 246 247 252 252
358 358 1 1 5 14 12 11 15 19 24 23 24 24 19 19 25 32 51 56 63 63 60 30 42 209 242 237 234 231 237 218 222 228 235 240 244 243 244 243 243 245 248
357 359 359 1 4 6 10 8 12 16 21 23 22 23 14 13 21 23 39 39 48 46 45 36 353 10 287 293 237 226 213 222 220 224 228 230 235 238 240 239 237 239 244
355 358 358 2 5 5 3 7 13 18 21 16 15 16 9 12 18 23 29 32 35 27 30 24 2 288 277 334 333 252 239 231 226 228 233 231 231 237 239 238 240 244 244
355 357 355 359 2 2 1 4 12 15 14 12 7 3 3 11 14 22 26 28 26 15 14 15 5 346 286 303 315 287 275 280 249 237 233 232 234 237 241 241 244 247 248
6 1 0 2 7 5 4 9 12 12 10 4 356 355 359 8 12 14 18 21 25 16 18 14 4 6 10 324 302 293 295 285 264 252 235 230 231 231 235 243 248 246 247
8 6 3 4 6 6 13 11 10 7 6 1 358 359 1 9 11 10 10 13 14 17 25 20 21 28 24 16 2 326 314 298 291 274 258 249 238 231 233 235 240 243 246
7 10 6 4 3 4 4 5 4 8 7 1 1 3 6 8 9 8 10 11 8 14 17 21 29 27 19 32 26 14 351 316 295 286 276 259 255 254 234 227 229 230 233
8 3 5 5 1 358 360 4 13 10 13 10 7 6 10 13 11 13 17 11 9 12 16 21 24 19 16 19 18 20 17 4 342 309 293 285 271 262 255 249 251 229 225
1 6 9 8 4 3 5 4 1 5 12 17 14 10 17 14 16 20 20 22 19 19 22 19 12 4 6 6 7 10 7 358 355 345 319 300 293 278 261 256 256 257 266
3 10 9 9 11 11 9 2 0 1 3 4 10 15 18 18 16 20 19 20 29 29 24 15 10 1 356 353 355 355 349 341 340 342 333 326 315 298 285 263 252 257 253
7 8 4 9 13 13 10 10 8 5 6 2 5 13 18 20 19 20 25 25 21 21 18 19 11 5 357 346 344 346 343 341 337 327 326 324 327 317 296 280 275 263 257
7 3 3 5 6 8 11 11 10 9 7 6 11 12 10 12 18 20 20 21 19 16 15 18 15 14 7 357 348 343 337 333 331 329 326 321 311 304 302 299 287 275 269
352 357 1 1 4 7 9 12 12 13 12 9 9 9 9 15 18 18 17 17 18 14 10 13 14 14 11 4 359 353 350 341 332 323 316 314 313 304 297 297 295 301 288
350 355 0 360 1 3 6 7 7 9 10 9 9 10 10 13 15 17 16 15 15 17 17 10 8 10 9 6 3 357 352 346 338 325 313 302 297 295 293 289 287 287 284
349 350 352 357 359 1 5 3 1 3 5 6 7 8 10 11 9 10 11 12 12 14 17 14 9 5 5 4 4 1 357 349 339 330 321 308 294 286 285 285 284 281 279
340 340 345 346 352 356 358 0 3 2 2 3 4 6 6 6 8 7 7 8 9 11 12 11 10 7 5 2 3 3 357 353 347 338 325 314 300 291 278 278 279 280 282
337 343 344 344 341 349 356 356 358 359 360 2 3 3 4 6 5 5 6 6 6 7 8 7 10 9 6 3 1 359 358 354 352 347 339 325 310 296 284 276 274 276 274
345 343 343 342 340 340 351 353 354 355 357 359 1 2 2 2 3 3 3 2 1 1 2 4 5 5 6 3 3 358 354 353 353 353 350 340 330 312 294 280 271 271 269